| time (UTC) | temp F | wind direction | speed knots | gust knots | rain 1hr in | rain 24hr in | rain mn in | humidity % | barometer mb |
| 20260906154221 | 68 | 322 | 2.6 | 3.5 | 0.00 | 0.00 | 0.00 | 49 | 1033.6 |
| 20260906153719 | 68 | 175 | 3.5 | 3.5 | 0.00 | 0.00 | 0.00 | 49 | 1033.6 |
| 20260906153213 | 68 | 303 | 0.9 | 0.9 | 0.00 | 0.00 | 0.00 | 48 | 1033.7 |
| 20260906152709 | 67 | 181 | 0.9 | 1.7 | 0.00 | 0.00 | 0.00 | 49 | 1033.7 |
| 20260906152203 | 67 | 269 | 1.7 | 1.7 | 0.00 | 0.00 | 0.00 | 49 | 1033.6 |
| 20260906151658 | 67 | 334 | 2.6 | 2.6 | 0.00 | 0.00 | 0.00 | 49 | 1033.7 |
| 20260906151153 | 67 | 311 | 1.7 | 2.6 | 0.00 | 0.00 | 0.00 | 49 | 1033.3 |
| 20260906150648 | 67 | 268 | 1.7 | 2.6 | 0.00 | 0.00 | 0.00 | 48 | 1033.5 |
| 20260906150143 | 66 | 270 | 0.0 | 2.6 | 0.00 | 0.00 | 0.00 | 49 | 1033.6 |
| 20260906145637 | 67 | 319 | 1.7 | 3.5 | 0.00 | 0.00 | 0.00 | 47 | 1033.9 |
| 20260906145131 | 67 | 267 | 0.9 | 1.7 | 0.00 | 0.00 | 0.00 | 48 | 1033.7 |
| 20260906144626 | 66 | 270 | 0.9 | 1.7 | 0.00 | 0.00 | 0.00 | 48 | 1033.5 |
| 20260906144121 | 66 | 284 | 0.0 | 0.9 | 0.00 | 0.00 | 0.00 | 47 | 1033.6 |
| 20260906143620 | 66 | 263 | 0.9 | 1.7 | 0.00 | 0.00 | 0.00 | 48 | 1033.6 |
| 20260906143118 | 66 | 264 | 0.0 | 0.0 | 0.00 | 0.00 | 0.00 | 47 | 1033.6 |
| 20260906142617 | 64 | 267 | 0.0 | 1.7 | 0.00 | 0.00 | 0.00 | 48 | 1033.5 |
| 20260906142112 | 65 | 277 | 0.0 | 0.9 | 0.00 | 0.00 | 0.00 | 47 | 1034.0 |
| 20260906141611 | 67 | 270 | 0.0 | 0.0 | 0.00 | 0.00 | 0.00 | 47 | 1033.5 |
| 20260906141107 | 66 | 262 | 0.0 | 0.0 | 0.00 | 0.00 | 0.00 | 48 | 1033.5 |
| 20260906140605 | 65 | 282 | 0.0 | 0.0 | 0.00 | 0.00 | 0.00 | 49 | 1033.5 |
| 20260906140101 | 64 | 299 | 0.9 | 1.7 | 0.00 | 0.00 | 0.00 | 50 | 1033.3 |
| 20260906135557 | 62 | 242 | 0.9 | 0.9 | 0.00 | 0.00 | 0.00 | 59 | 1033.3 |
| 20260906135053 | 61 | 250 | 0.0 | 0.9 | 0.00 | 0.00 | 0.00 | 61 | 1033.6 |
| 20260906134549 | 61 | 250 | 0.9 | 0.9 | 0.00 | 0.00 | 0.00 | 61 | 1033.2 |
| 20260906134044 | 60 | 246 | 0.0 | 1.7 | 0.00 | 0.00 | 0.00 | 58 | 1033.3 |
| 20260906133539 | 59 | 222 | 1.7 | 1.7 | 0.00 | 0.00 | 0.00 | 60 | 1033.2 |
| 20260906133035 | 58 | 236 | 0.9 | 1.7 | 0.00 | 0.00 | 0.00 | 61 | 1033.3 |
| 20260906132529 | 57 | 220 | 1.7 | 1.7 | 0.00 | 0.00 | 0.00 | 62 | 1033.5 |
| 20260906132025 | 57 | 223 | 1.7 | 1.7 | 0.00 | 0.00 | 0.00 | 63 | 1033.2 |
| 20260906131520 | 56 | 223 | 1.7 | 1.7 | 0.00 | 0.00 | 0.00 | 63 | 1033.1 |
| 20260906131016 | 56 | 213 | 1.7 | 2.6 | 0.00 | 0.00 | 0.00 | 63 | 1032.9 |
| 20260906130515 | 55 | 215 | 1.7 | 2.6 | 0.00 | 0.00 | 0.00 | 63 | 1033.1 |
| 20260906130010 | 55 | 207 | 2.6 | 2.6 | 0.00 | 0.00 | 0.00 | 64 | 1033.1 |
| 20260906125508 | 54 | 208 | 2.6 | 2.6 | 0.00 | 0.00 | 0.00 | 65 | 1032.9 |
| 20260906125007 | 54 | 205 | 2.6 | 2.6 | 0.00 | 0.00 | 0.00 | 65 | 1033.1 |
| 20260906124503 | 54 | 200 | 2.6 | 2.6 | 0.00 | 0.00 | 0.00 | 63 | 1032.9 |
| 20260906123957 | 54 | 210 | 2.6 | 2.6 | 0.00 | 0.00 | 0.00 | 65 | 1032.9 |
| 20260906123451 | 54 | 205 | 2.6 | 2.6 | 0.00 | 0.00 | 0.00 | 63 | 1032.8 |
| 20260906122950 | 54 | 209 | 2.6 | 2.6 | 0.00 | 0.00 | 0.00 | 64 | 1032.8 |
| 20260906122445 | 54 | 208 | 2.6 | 2.6 | 0.00 | 0.00 | 0.00 | 64 | 1032.8 |
| 20260906121942 | 54 | 208 | 2.6 | 2.6 | 0.00 | 0.00 | 0.00 | 64 | 1032.9 |
| 20260906121437 | 55 | 205 | 2.6 | 2.6 | 0.00 | 0.00 | 0.00 | 63 | 1032.8 |
| 20260906120934 | 55 | 209 | 2.6 | 2.6 | 0.00 | 0.00 | 0.00 | 62 | 1032.8 |
| 20260906120429 | 55 | 206 | 2.6 | 2.6 | 0.00 | 0.00 | 0.00 | 63 | 1032.9 |
| 20260906115925 | 55 | 210 | 2.6 | 2.6 | 0.00 | 0.00 | 0.00 | 63 | 1032.8 |
| 20260906115420 | 55 | 207 | 2.6 | 2.6 | 0.00 | 0.00 | 0.00 | 62 | 1032.9 |
| 20260906114915 | 55 | 209 | 2.6 | 2.6 | 0.00 | 0.00 | 0.00 | 62 | 1032.8 |
| 20260906114410 | 55 | 208 | 2.6 | 3.5 | 0.00 | 0.00 | 0.00 | 62 | 1032.9 |
| 20260906113905 | 55 | 204 | 2.6 | 2.6 | 0.00 | 0.00 | 0.00 | 63 | 1032.9 |
| 20260906113403 | 55 | 212 | 1.7 | 2.6 | 0.00 | 0.00 | 0.00 | 64 | 1032.9 |
| 20260906112859 | 55 | 206 | 2.6 | 2.6 | 0.00 | 0.00 | 0.00 | 64 | 1033.1 |
| 20260906112355 | 55 | 204 | 2.6 | 2.6 | 0.00 | 0.00 | 0.00 | 65 | 1032.7 |
| 20260906111850 | 55 | 206 | 2.6 | 2.6 | 0.00 | 0.00 | 0.00 | 64 | 1032.8 |
| 20260906111349 | 55 | 208 | 2.6 | 2.6 | 0.00 | 0.00 | 0.00 | 64 | 1032.7 |
| 20260906110844 | 54 | 202 | 2.6 | 2.6 | 0.00 | 0.00 | 0.00 | 64 | 1032.7 |
| 20260906110340 | 54 | 202 | 2.6 | 2.6 | 0.00 | 0.00 | 0.00 | 64 | 1032.5 |
| 20260906105838 | 54 | 203 | 2.6 | 2.6 | 0.00 | 0.00 | 0.00 | 64 | 1032.5 |
| 20260906105335 | 54 | 203 | 2.6 | 2.6 | 0.00 | 0.00 | 0.00 | 65 | 1032.8 |
| 20260906104831 | 54 | 204 | 2.6 | 2.6 | 0.00 | 0.00 | 0.00 | 64 | 1032.7 |
| 20260906104329 | 55 | 204 | 2.6 | 2.6 | 0.00 | 0.00 | 0.00 | 63 | 1032.7 |
| 20260906103828 | 54 | 204 | 2.6 | 2.6 | 0.00 | 0.00 | 0.00 | 64 | 1032.5 |
| 20260906103326 | 54 | 203 | 2.6 | 2.6 | 0.00 | 0.00 | 0.00 | 65 | 1032.7 |
| 20260906102822 | 54 | 199 | 2.6 | 2.6 | 0.00 | 0.00 | 0.00 | 64 | 1032.8 |
| 20260906102321 | 54 | 204 | 2.6 | 2.6 | 0.00 | 0.00 | 0.00 | 66 | 1032.7 |
| 20260906101817 | 54 | 205 | 2.6 | 2.6 | 0.00 | 0.00 | 0.00 | 65 | 1032.7 |
| 20260906101312 | 54 | 204 | 2.6 | 2.6 | 0.00 | 0.00 | 0.00 | 66 | 1032.9 |
| 20260906100808 | 55 | 201 | 2.6 | 2.6 | 0.00 | 0.00 | 0.00 | 65 | 1032.8 |
| 20260906100306 | 55 | 205 | 2.6 | 2.6 | 0.00 | 0.00 | 0.00 | 64 | 1032.8 |
| 20260906095802 | 55 | 207 | 2.6 | 2.6 | 0.00 | 0.00 | 0.00 | 64 | 1032.8 |
| 20260906095257 | 55 | 211 | 2.6 | 2.6 | 0.00 | 0.00 | 0.00 | 65 | 1032.8 |
| 20260906094750 | 55 | 206 | 2.6 | 2.6 | 0.00 | 0.00 | 0.00 | 64 | 1032.8 |
| 20260906094245 | 55 | 201 | 2.6 | 2.6 | 0.00 | 0.00 | 0.00 | 64 | 1032.8 |
| 20260906093741 | 55 | 204 | 2.6 | 2.6 | 0.00 | 0.00 | 0.00 | 64 | 1032.9 |
| 20260906093237 | 55 | 202 | 2.6 | 2.6 | 0.00 | 0.00 | 0.00 | 65 | 1032.9 |
| 20260906092732 | 55 | 205 | 2.6 | 2.6 | 0.00 | 0.00 | 0.00 | 64 | 1033.1 |
| 20260906092226 | 55 | 201 | 2.6 | 2.6 | 0.00 | 0.00 | 0.00 | 65 | 1032.8 |
| 20260906091722 | 55 | 203 | 2.6 | 2.6 | 0.00 | 0.00 | 0.00 | 65 | 1033.1 |
| 20260906091213 | 55 | 208 | 2.6 | 2.6 | 0.00 | 0.00 | 0.00 | 64 | 1033.2 |
| 20260906090709 | 55 | 207 | 2.6 | 2.6 | 0.00 | 0.00 | 0.00 | 64 | 1032.9 |
| 20260906090208 | 56 | 203 | 2.6 | 3.5 | 0.00 | 0.00 | 0.00 | 64 | 1033.1 |
| 20260906085707 | 55 | 207 | 3.5 | 3.5 | 0.00 | 0.00 | 0.00 | 64 | 1032.9 |
| 20260906085206 | 55 | 202 | 3.5 | 3.5 | 0.00 | 0.00 | 0.00 | 64 | 1032.7 |
| 20260906084701 | 56 | 197 | 2.6 | 3.5 | 0.00 | 0.00 | 0.00 | 65 | 1032.9 |
| 20260906084200 | 56 | 199 | 2.6 | 3.5 | 0.00 | 0.00 | 0.00 | 62 | 1032.7 |
| 20260906083655 | 56 | 206 | 3.5 | 3.5 | 0.00 | 0.00 | 0.00 | 61 | 1032.9 |
| 20260906083151 | 57 | 201 | 3.5 | 5.2 | 0.00 | 0.00 | 0.00 | 59 | 1032.8 |
| 20260906082646 | 57 | 201 | 2.6 | 3.5 | 0.00 | 0.00 | 0.00 | 58 | 1032.9 |
| 20260906082141 | 58 | 206 | 3.5 | 3.5 | 0.00 | 0.00 | 0.00 | 58 | 1032.9 |
| 20260906081637 | 57 | 204 | 3.5 | 3.5 | 0.00 | 0.00 | 0.00 | 60 | 1032.9 |
| 20260906081132 | 57 | 221 | 3.5 | 3.5 | 0.00 | 0.00 | 0.00 | 60 | 1032.9 |
| 20260906080629 | 57 | 234 | 3.5 | 3.5 | 0.00 | 0.00 | 0.00 | 63 | 1033.1 |
| 20260906080124 | 58 | 209 | 2.6 | 3.5 | 0.00 | 0.00 | 0.00 | 60 | 1033.1 |
| 20260906075618 | 57 | 198 | 3.5 | 3.5 | 0.00 | 0.00 | 0.00 | 60 | 1033.3 |
| 20260906075113 | 57 | 211 | 3.5 | 5.2 | 0.00 | 0.00 | 0.00 | 61 | 1033.2 |
| 20260906074609 | 57 | 201 | 3.5 | 3.5 | 0.00 | 0.00 | 0.00 | 59 | 1033.2 |
| 20260906074108 | 57 | 218 | 3.5 | 3.5 | 0.00 | 0.00 | 0.00 | 62 | 1033.1 |
| 20260906073608 | 56 | 209 | 2.6 | 3.5 | 0.00 | 0.00 | 0.00 | 64 | 1033.1 |
| 20260906073104 | 56 | 214 | 1.7 | 2.6 | 0.00 | 0.00 | 0.00 | 63 | 1033.1 |
| 20260906072558 | 57 | 218 | 1.7 | 2.6 | 0.00 | 0.00 | 0.00 | 61 | 1033.3 |
| 20260906072054 | 57 | 206 | 3.5 | 3.5 | 0.00 | 0.00 | 0.00 | 60 | 1033.2 |
| 20260906071550 | 57 | 211 | 2.6 | 3.5 | 0.00 | 0.00 | 0.00 | 61 | 1033.2 |
| 20260906071040 | 58 | 218 | 2.6 | 3.5 | 0.00 | 0.00 | 0.00 | 60 | 1033.2 |
| 20260906070536 | 57 | 213 | 2.6 | 3.5 | 0.00 | 0.00 | 0.00 | 64 | 1033.2 |
| 20260906070032 | 57 | 205 | 2.6 | 3.5 | 0.00 | 0.00 | 0.00 | 65 | 1033.1 |
| 20260906065531 | 56 | 205 | 3.5 | 3.5 | 0.00 | 0.00 | 0.00 | 66 | 1033.2 |
| 20260906065027 | 57 | 207 | 2.6 | 2.6 | 0.00 | 0.00 | 0.00 | 66 | 1033.1 |
| 20260906064522 | 57 | 212 | 2.6 | 2.6 | 0.00 | 0.00 | 0.00 | 64 | 1033.1 |
| 20260906064017 | 56 | 201 | 2.6 | 2.6 | 0.00 | 0.00 | 0.00 | 67 | 1033.5 |
| 20260906063513 | 55 | 207 | 2.6 | 2.6 | 0.00 | 0.00 | 0.00 | 69 | 1033.6 |
| 20260906063008 | 55 | 210 | 3.5 | 3.5 | 0.00 | 0.00 | 0.00 | 70 | 1033.2 |
| 20260906062503 | 54 | 200 | 2.6 | 3.5 | 0.00 | 0.00 | 0.00 | 70 | 1033.7 |
| 20260906061957 | 53 | 209 | 2.6 | 3.5 | 0.00 | 0.00 | 0.00 | 75 | 1033.5 |
| 20260906061454 | 53 | 202 | 2.6 | 3.5 | 0.00 | 0.00 | 0.00 | 78 | 1033.3 |
| 20260906060953 | 52 | 207 | 3.5 | 3.5 | 0.00 | 0.00 | 0.00 | 79 | 1033.7 |
| 20260906060450 | 52 | 214 | 2.6 | 2.6 | 0.00 | 0.00 | 0.00 | 82 | 1033.7 |
| 20260906055946 | 51 | 212 | 2.6 | 2.6 | 0.00 | 0.02 | 0.02 | 82 | 1033.7 |
| 20260906055442 | 51 | 209 | 2.6 | 2.6 | 0.00 | 0.02 | 0.02 | 84 | 1033.5 |
| 20260906054937 | 51 | 203 | 2.6 | 2.6 | 0.00 | 0.02 | 0.02 | 84 | 1033.7 |
| 20260906054432 | 51 | 204 | 2.6 | 2.6 | 0.00 | 0.02 | 0.02 | 85 | 1033.7 |
| 20260906053928 | 51 | 206 | 2.6 | 2.6 | 0.00 | 0.02 | 0.02 | 86 | 1033.9 |
| 20260906053424 | 51 | 216 | 1.7 | 2.6 | 0.00 | 0.02 | 0.02 | 87 | 1034.1 |
| 20260906052919 | 52 | 220 | 1.7 | 1.7 | 0.00 | 0.02 | 0.02 | 88 | 1034.1 |
| 20260906052415 | 51 | 209 | 2.6 | 2.6 | 0.00 | 0.02 | 0.02 | 88 | 1034.0 |
| 20260906051912 | 52 | 203 | 2.6 | 2.6 | 0.00 | 0.02 | 0.02 | 89 | 1033.9 |
| 20260906051412 | 52 | 213 | 2.6 | 3.5 | 0.00 | 0.02 | 0.02 | 90 | 1034.4 |
| 20260906050908 | 53 | 215 | 1.7 | 2.6 | 0.00 | 0.02 | 0.02 | 91 | 1034.1 |
| 20260906050403 | 53 | 217 | 1.7 | 2.6 | 0.00 | 0.02 | 0.02 | 92 | 1034.1 |
| 20260906045902 | 53 | 233 | 1.7 | 2.6 | 0.00 | 0.02 | 0.02 | 93 | 1033.9 |
| 20260906045400 | 53 | 238 | 0.9 | 1.7 | 0.00 | 0.02 | 0.02 | 92 | 1034.4 |
| 20260906044857 | 53 | 218 | 2.6 | 2.6 | 0.00 | 0.02 | 0.02 | 89 | 1034.1 |
| 20260906044357 | 55 | 222 | 1.7 | 2.6 | 0.05 | 0.02 | 0.02 | 86 | 1034.3 |
| 20260906043853 | 56 | 251 | 2.6 | 6.1 | 0.05 | 0.02 | 0.02 | 79 | 1034.3 |
| 20260906043349 | 59 | 193 | 3.5 | 7.0 | 0.00 | 0.01 | 0.01 | 69 | 1034.4 |
| 20260906042844 | 58 | 234 | 4.3 | 7.8 | 0.00 | 0.01 | 0.01 | 66 | 1034.3 |
| 20260906042342 | 57 | 169 | 3.5 | 9.6 | 0.00 | 0.01 | 0.01 | 67 | 1034.3 |
| 20260906041838 | 56 | 187 | 7.0 | 11.3 | 0.07 | 0.01 | 0.01 | 73 | 1034.0 |
| 20260906041334 | 56 | 235 | 5.2 | 7.0 | 0.07 | 0.01 | 0.01 | 77 | 1034.4 |
| 20260906040834 | 60 | 205 | 7.8 | 8.7 | 0.00 | 0.00 | 0.00 | 71 | 1033.9 |
| 20260906040329 | 62 | 211 | 4.3 | 8.7 | 0.00 | 0.00 | 0.00 | 54 | 1034.1 |
| 20260906035824 | 62 | 220 | 1.7 | 7.0 | 0.00 | 0.00 | 0.00 | 54 | 1033.7 |
| 20260906035319 | 63 | 248 | 3.5 | 7.8 | 0.00 | 0.00 | 0.00 | 52 | 1033.6 |
| 20260906034815 | 63 | 218 | 3.5 | 7.8 | 0.00 | 0.00 | 0.00 | 49 | 1033.6 |
| 20260906034314 | 64 | 262 | 5.2 | 7.8 | 0.00 | 0.00 | 0.00 | 49 | 1033.7 |
| 20260906033811 | 64 | 228 | 2.6 | 5.2 | 0.00 | 0.00 | 0.00 | 47 | 1033.3 |
| 20260906033309 | 63 | 251 | 0.0 | 0.0 | 0.00 | 0.00 | 0.00 | 48 | 1033.6 |
| 20260906032806 | 63 | 248 | 0.0 | 0.0 | 0.00 | 0.00 | 0.00 | 48 | 1033.7 |
| 20260906032305 | 63 | 218 | 1.7 | 2.6 | 0.00 | 0.00 | 0.00 | 48 | 1033.5 |
| 20260906031757 | 62 | 223 | 1.7 | 1.7 | 0.00 | 0.00 | 0.00 | 50 | 1033.6 |
| 20260906031253 | 62 | 216 | 2.6 | 2.6 | 0.00 | 0.00 | 0.00 | 50 | 1033.5 |
| 20260906030752 | 60 | 219 | 1.7 | 1.7 | 0.00 | 0.00 | 0.00 | 59 | 1033.3 |
| 20260906030248 | 61 | 236 | 0.9 | 1.7 | 0.00 | 0.00 | 0.00 | 55 | 1033.2 |
| 20260906025747 | 64 | 238 | 0.9 | 2.6 | 0.00 | 0.00 | 0.00 | 54 | 1032.9 |
| 20260906025241 | 63 | 218 | 2.6 | 3.5 | 0.00 | 0.00 | 0.00 | 47 | 1033.2 |
| 20260906024740 | 63 | 237 | 1.7 | 2.6 | 0.00 | 0.00 | 0.00 | 49 | 1033.2 |
| 20260906024239 | 63 | 234 | 3.5 | 3.5 | 0.00 | 0.00 | 0.00 | 49 | 1033.1 |
| 20260906023735 | 62 | 212 | 3.5 | 3.5 | 0.00 | 0.00 | 0.00 | 49 | 1033.1 |
| 20260906023230 | 62 | 218 | 1.7 | 1.7 | 0.00 | 0.00 | 0.00 | 51 | 1032.9 |
| 20260906022726 | 60 | 194 | 2.6 | 2.6 | 0.00 | 0.00 | 0.00 | 52 | 1032.8 |
| 20260906022216 | 61 | 248 | 0.9 | 0.9 | 0.00 | 0.00 | 0.00 | 52 | 1032.8 |
| 20260906021711 | 61 | 245 | 0.9 | 1.7 | 0.00 | 0.00 | 0.00 | 51 | 1032.5 |
| 20260906021209 | 62 | 236 | 0.9 | 1.7 | 0.00 | 0.00 | 0.00 | 51 | 1032.4 |
| 20260906020705 | 62 | 235 | 1.7 | 1.7 | 0.00 | 0.00 | 0.00 | 49 | 1032.7 |
| 20260906020159 | 64 | 267 | 0.0 | 0.9 | 0.00 | 0.00 | 0.00 | 46 | 1032.7 |
| 20260906015653 | 64 | 248 | 0.0 | 0.0 | 0.00 | 0.00 | 0.00 | 46 | 1032.8 |
| 20260906015152 | 64 | 280 | 0.9 | 1.7 | 0.00 | 0.00 | 0.00 | 47 | 1032.7 |
| 20260906014646 | 64 | 238 | 0.9 | 1.7 | 0.00 | 0.00 | 0.00 | 48 | 1032.8 |
| 20260906014142 | 64 | 272 | 0.9 | 1.7 | 0.00 | 0.00 | 0.00 | 46 | 1032.8 |
| 20260906013639 | 65 | 246 | 1.7 | 1.7 | 0.00 | 0.00 | 0.00 | 46 | 1032.7 |
| 20260906013134 | 65 | 263 | 0.9 | 2.6 | 0.00 | 0.00 | 0.00 | 46 | 1032.5 |
| 20260906012634 | 66 | 298 | 1.7 | 6.1 | 0.00 | 0.00 | 0.00 | 45 | 1032.5 |
| 20260906012128 | 66 | 303 | 0.9 | 2.6 | 0.00 | 0.00 | 0.00 | 45 | 1032.7 |
| 20260906011624 | 66 | 263 | 1.7 | 2.6 | 0.00 | 0.00 | 0.00 | 44 | 1032.9 |
| 20260906011119 | 66 | 317 | 2.6 | 7.0 | 0.00 | 0.00 | 0.00 | 43 | 1032.9 |
| 20260906010614 | 66 | 290 | 2.6 | 2.6 | 0.00 | 0.00 | 0.00 | 43 | 1032.5 |
| 20260906010110 | 67 | 279 | 2.6 | 5.2 | 0.00 | 0.00 | 0.00 | 42 | 1032.8 |
| 20260906005609 | 68 | 254 | 0.9 | 5.2 | 0.00 | 0.00 | 0.00 | 42 | 1032.7 |
| 20260906005108 | 68 | 288 | 0.9 | 1.7 | 0.00 | 0.00 | 0.00 | 41 | 1032.5 |
| 20260906004603 | 68 | 265 | 0.0 | 1.7 | 0.00 | 0.00 | 0.00 | 40 | 1032.4 |
| 20260906004057 | 69 | 354 | 0.9 | 3.5 | 0.00 | 0.00 | 0.00 | 41 | 1032.7 |
| 20260906003553 | 69 | 256 | 1.7 | 2.6 | 0.00 | 0.00 | 0.00 | 39 | 1032.7 |
| 20260906003048 | 69 | 290 | 0.9 | 2.6 | 0.00 | 0.00 | 0.00 | 39 | 1032.5 |
| 20260906002543 | 69 | 277 | 0.9 | 1.7 | 0.00 | 0.00 | 0.00 | 39 | 1032.4 |
| 20260906002037 | 69 | 265 | 0.0 | 0.0 | 0.00 | 0.00 | 0.00 | 39 | 1032.5 |
| 20260906001533 | 69 | 259 | 0.9 | 1.7 | 0.00 | 0.00 | 0.00 | 38 | 1032.7 |
| 20260906001027 | 69 | 250 | 0.0 | 1.7 | 0.00 | 0.00 | 0.00 | 39 | 1032.5 |
| 20260906000523 | 70 | 247 | 0.0 | 0.0 | 0.00 | 0.00 | 0.00 | 40 | 1032.4 |
| 20260906000018 | 69 | 265 | 0.0 | 1.7 | 0.00 | 0.00 | 0.00 | 39 | 1032.7 |
| 20260905235511 | 70 | 218 | 0.0 | 0.9 | 0.00 | 0.00 | 0.00 | 38 | 1032.4 |
| 20260905235006 | 70 | 328 | 3.5 | 5.2 | 0.00 | 0.00 | 0.00 | 38 | 1032.5 |
| 20260905234502 | 71 | 327 | 2.6 | 2.6 | 0.00 | 0.00 | 0.00 | 37 | 1032.5 |
| 20260905233956 | 72 | 271 | 2.6 | 6.1 | 0.00 | 0.00 | 0.00 | 37 | 1032.4 |
| 20260905233452 | 72 | 327 | 3.5 | 3.5 | 0.00 | 0.00 | 0.00 | 37 | 1032.1 |
| 20260905232950 | 72 | 358 | 3.5 | 5.2 | 0.00 | 0.00 | 0.00 | 36 | 1032.5 |
| 20260905232447 | 72 | 285 | 1.7 | 3.5 | 0.00 | 0.00 | 0.00 | 37 | 1032.1 |
| 20260905231942 | 73 | 358 | 0.9 | 6.1 | 0.00 | 0.00 | 0.00 | 36 | 1032.4 |
| 20260905231438 | 73 | 282 | 0.0 | 0.9 | 0.00 | 0.00 | 0.00 | 35 | 1032.4 |
| 20260905230934 | 72 | 238 | 3.5 | 5.2 | 0.00 | 0.00 | 0.00 | 36 | 1032.3 |
| 20260905230427 | 72 | 320 | 0.0 | 7.0 | 0.00 | 0.00 | 0.00 | 38 | 1032.4 |
| 20260905225925 | 72 | 348 | 3.5 | 7.0 | 0.00 | 0.00 | 0.00 | 36 | 1032.3 |
| 20260905225420 | 72 | 19 | 3.5 | 7.0 | 0.00 | 0.00 | 0.00 | 36 | 1032.1 |
| 20260905224915 | 74 | 46 | 2.6 | 6.1 | 0.00 | 0.00 | 0.00 | 35 | 1032.3 |
| 20260905224411 | 73 | 56 | 5.2 | 9.6 | 0.00 | 0.00 | 0.00 | 35 | 1032.4 |
| 20260905223905 | 74 | 117 | 2.6 | 5.2 | 0.00 | 0.00 | 0.00 | 34 | 1032.3 |
| 20260905223403 | 73 | 18 | 7.0 | 9.6 | 0.00 | 0.00 | 0.00 | 35 | 1032.3 |
| 20260905222903 | 73 | 27 | 4.3 | 6.1 | 0.00 | 0.00 | 0.00 | 35 | 1032.4 |
| 20260905222402 | 73 | 274 | 0.0 | 2.6 | 0.00 | 0.00 | 0.00 | 35 | 1032.4 |
| 20260905221858 | 73 | 262 | 0.0 | 3.5 | 0.00 | 0.00 | 0.00 | 35 | 1032.3 |
| 20260905221355 | 75 | 70 | 0.9 | 3.5 | 0.00 | 0.00 | 0.00 | 34 | 1032.4 |
| 20260905220850 | 73 | 217 | 0.9 | 1.7 | 0.00 | 0.00 | 0.00 | 36 | 1032.4 |
| 20260905220347 | 73 | 320 | 0.9 | 2.6 | 0.00 | 0.00 | 0.00 | 35 | 1032.4 |
| 20260905215846 | 73 | 343 | 3.5 | 6.1 | 0.00 | 0.00 | 0.00 | 36 | 1032.5 |
| 20260905215341 | 72 | 4 | 3.5 | 7.0 | 0.00 | 0.00 | 0.00 | 36 | 1032.5 |
| 20260905214832 | 72 | 358 | 4.3 | 7.8 | 0.00 | 0.00 | 0.00 | 36 | 1032.5 |
| 20260905214327 | 73 | 359 | 2.6 | 3.5 | 0.00 | 0.00 | 0.00 | 36 | 1032.8 |
| 20260905213822 | 73 | 275 | 0.9 | 2.6 | 0.00 | 0.00 | 0.00 | 35 | 1032.5 |
| 20260905213318 | 73 | 299 | 1.7 | 5.2 | 0.00 | 0.00 | 0.00 | 36 | 1032.5 |
| 20260905212813 | 72 | 261 | 1.7 | 2.6 | 0.00 | 0.00 | 0.00 | 36 | 1032.8 |
| 20260905212312 | 73 | 223 | 0.9 | 8.7 | 0.00 | 0.00 | 0.00 | 35 | 1032.8 |
| 20260905211807 | 73 | 104 | 2.6 | 6.1 | 0.00 | 0.00 | 0.00 | 35 | 1032.8 |
| 20260905211302 | 72 | 9 | 1.7 | 6.1 | 0.00 | 0.00 | 0.00 | 36 | 1032.9 |
| 20260905210759 | 71 | 317 | 3.5 | 7.8 | 0.00 | 0.00 | 0.00 | 37 | 1033.1 |
| 20260905210258 | 71 | 17 | 3.5 | 6.1 | 0.00 | 0.00 | 0.00 | 37 | 1033.3 |
| 20260905205757 | 71 | 55 | 7.0 | 7.8 | 0.00 | 0.00 | 0.00 | 37 | 1033.2 |
| 20260905205252 | 69 | 349 | 2.6 | 5.2 | 0.00 | 0.00 | 0.00 | 37 | 1033.6 |
| 20260905204751 | 70 | 351 | 1.7 | 5.2 | 0.00 | 0.00 | 0.00 | 38 | 1033.2 |
| 20260905204248 | 71 | 273 | 0.0 | 5.2 | 0.00 | 0.00 | 0.00 | 38 | 1033.2 |
| 20260905203747 | 71 | 280 | 1.7 | 5.2 | 0.00 | 0.00 | 0.00 | 37 | 1033.2 |
| 20260905203242 | 71 | 318 | 5.2 | 7.0 | 0.00 | 0.00 | 0.00 | 36 | 1033.2 |
| 20260905202738 | 72 | 15 | 5.2 | 7.0 | 0.00 | 0.00 | 0.00 | 38 | 1033.3 |
| 20260905202238 | 71 | 16 | 1.7 | 6.1 | 0.00 | 0.00 | 0.00 | 38 | 1033.2 |
| 20260905201733 | 71 | 99 | 7.8 | 9.6 | 0.00 | 0.00 | 0.00 | 36 | 1033.5 |
| 20260905201228 | 69 | 210 | 1.7 | 1.7 | 0.00 | 0.00 | 0.00 | 40 | 1033.2 |
| 20260905200723 | 69 | 5 | 1.7 | 8.7 | 0.00 | 0.00 | 0.00 | 39 | 1033.2 |
| 20260905200219 | 69 | 345 | 3.5 | 8.7 | 0.00 | 0.00 | 0.00 | 39 | 1033.2 |
| 20260905195717 | 69 | 300 | 4.3 | 7.8 | 0.00 | 0.00 | 0.00 | 39 | 1033.3 |
| 20260905195213 | 69 | 292 | 6.1 | 7.8 | 0.00 | 0.00 | 0.00 | 39 | 1033.3 |
| 20260905194708 | 69 | 37 | 6.1 | 7.0 | 0.00 | 0.00 | 0.00 | 39 | 1033.5 |
| 20260905194207 | 70 | 272 | 0.9 | 5.2 | 0.00 | 0.00 | 0.00 | 39 | 1033.5 |
| 20260905193701 | 70 | 286 | 3.5 | 6.1 | 0.00 | 0.00 | 0.00 | 38 | 1033.3 |
| 20260905193156 | 71 | 84 | 3.5 | 8.7 | 0.00 | 0.00 | 0.00 | 37 | 1033.6 |
| 20260905192652 | 74 | 119 | 1.7 | 6.1 | 0.00 | 0.00 | 0.00 | 36 | 1033.3 |
| 20260905192149 | 73 | 107 | 2.6 | 6.1 | 0.00 | 0.00 | 0.00 | 35 | 1033.3 |
| 20260905191648 | 71 | 323 | 0.9 | 2.6 | 0.00 | 0.00 | 0.00 | 37 | 1033.5 |
| 20260905191146 | 72 | 212 | 0.9 | 3.5 | 0.00 | 0.00 | 0.00 | 37 | 1033.6 |
| 20260905190644 | 70 | 10 | 5.2 | 7.0 | 0.00 | 0.00 | 0.00 | 39 | 1033.6 |
| 20260905190144 | 71 | 316 | 2.6 | 2.6 | 0.00 | 0.00 | 0.00 | 37 | 1033.5 |
| 20260905185637 | 72 | 25 | 9.6 | 11.3 | 0.00 | 0.00 | 0.00 | 37 | 1033.5 |
| 20260905185132 | 72 | 359 | 3.5 | 3.5 | 0.00 | 0.00 | 0.00 | 36 | 1033.6 |
| 20260905184632 | 73 | 84 | 1.7 | 9.6 | 0.00 | 0.00 | 0.00 | 34 | 1033.6 |
| 20260905184131 | 73 | 71 | 4.3 | 7.8 | 0.00 | 0.00 | 0.00 | 34 | 1033.5 |
| 20260905183630 | 71 | 0 | 0.0 | 6.1 | 0.00 | 0.00 | 0.00 | 37 | 1033.6 |
| 20260905183126 | 70 | 307 | 2.6 | 7.0 | 0.00 | 0.00 | 0.00 | 37 | 1033.7 |
| 20260905182625 | 71 | 304 | 1.7 | 7.0 | 0.00 | 0.00 | 0.00 | 36 | 1033.5 |
| 20260905182119 | 72 | 115 | 2.6 | 3.5 | 0.00 | 0.00 | 0.00 | 35 | 1033.7 |
| 20260905181614 | 73 | 315 | 2.6 | 3.5 | 0.00 | 0.00 | 0.00 | 35 | 1033.6 |
| 20260905181113 | 74 | 275 | 1.7 | 2.6 | 0.00 | 0.00 | 0.00 | 35 | 1033.6 |
| 20260905180609 | 72 | 120 | 7.0 | 9.6 | 0.00 | 0.00 | 0.00 | 36 | 1033.7 |
| 20260905180104 | 73 | 42 | 3.5 | 6.1 | 0.00 | 0.00 | 0.00 | 37 | 1033.7 |
| 20260905175603 | 72 | 162 | 4.3 | 7.8 | 0.00 | 0.00 | 0.00 | 36 | 1033.9 |
| 20260905175058 | 74 | 51 | 7.0 | 9.6 | 0.00 | 0.00 | 0.00 | 34 | 1033.6 |
| 20260905174554 | 72 | 96 | 7.0 | 8.7 | 0.00 | 0.00 | 0.00 | 36 | 1033.9 |
| 20260905174049 | 72 | 297 | 3.5 | 8.7 | 0.00 | 0.00 | 0.00 | 36 | 1033.9 |
| 20260905173546 | 74 | 90 | 5.2 | 7.0 | 0.00 | 0.00 | 0.00 | 36 | 1033.9 |
| 20260905173041 | 73 | 279 | 1.7 | 5.2 | 0.00 | 0.00 | 0.00 | 35 | 1033.7 |
| 20260905172539 | 75 | 71 | 1.7 | 6.1 | 0.00 | 0.00 | 0.00 | 35 | 1033.9 |
| 20260905172035 | 74 | 150 | 7.0 | 7.8 | 0.00 | 0.00 | 0.00 | 34 | 1033.9 |
| 20260905171531 | 75 | 314 | 3.5 | 6.1 | 0.00 | 0.00 | 0.00 | 34 | 1033.6 |
| 20260905171027 | 75 | 252 | 0.0 | 0.9 | 0.00 | 0.00 | 0.00 | 33 | 1033.9 |
| 20260905170523 | 72 | 282 | 1.7 | 3.5 | 0.00 | 0.00 | 0.00 | 35 | 1033.6 |
| 20260905170018 | 71 | 8 | 1.7 | 3.5 | 0.00 | 0.00 | 0.00 | 36 | 1033.6 |
| 20260905165513 | 70 | 305 | 1.7 | 1.7 | 0.00 | 0.00 | 0.00 | 35 | 1033.9 |
| 20260905165008 | 69 | 271 | 1.7 | 3.5 | 0.00 | 0.00 | 0.00 | 36 | 1033.6 |
| 20260905164502 | 69 | 265 | 0.9 | 2.6 | 0.00 | 0.00 | 0.00 | 36 | 1034.0 |
| 20260905163956 | 69 | 270 | 1.7 | 3.5 | 0.00 | 0.00 | 0.00 | 37 | 1033.7 |
| 20260905163453 | 70 | 338 | 0.9 | 3.5 | 0.00 | 0.00 | 0.00 | 38 | 1033.5 |
| 20260905162949 | 70 | 276 | 1.7 | 3.5 | 0.00 | 0.00 | 0.00 | 36 | 1033.9 |
| 20260905162444 | 72 | 88 | 4.3 | 8.7 | 0.00 | 0.00 | 0.00 | 35 | 1033.7 |
| 20260905161939 | 70 | 7 | 3.5 | 6.1 | 0.00 | 0.00 | 0.00 | 36 | 1033.6 |
| 20260905161438 | 71 | 271 | 2.6 | 7.0 | 0.00 | 0.00 | 0.00 | 37 | 1033.6 |
| 20260905160936 | 71 | 14 | 1.7 | 6.1 | 0.00 | 0.00 | 0.00 | 36 | 1033.5 |
| 20260905160430 | 71 | 299 | 1.7 | 3.5 | 0.00 | 0.00 | 0.00 | 36 | 1033.5 |
| 20260905155930 | 70 | 293 | 3.5 | 6.1 | 0.00 | 0.00 | 0.00 | 36 | 1033.5 |
| 20260905155425 | 71 | 305 | 2.6 | 3.5 | 0.00 | 0.00 | 0.00 | 35 | 1033.6 |
| 20260905154923 | 70 | 247 | 1.7 | 2.6 | 0.00 | 0.00 | 0.00 | 36 | 1033.6 |